Regional Weather Roundup
Issued by NWS

Home | Current Version | Previous Version | Graphics & Text | Print | Product List | Glossary On
Versions: 1 2 3 4 5 6 7 8 9 10 11 12 13 14 15 16 17 18 19 20 21 22 23 24 25 26 27 28
000
ASUS45 KTFX 260010
RWRMT
MONTANA REGIONAL WEATHER ROUNDUP
NATIONAL WEATHER SERVICE GREAT FALLS MT
600 PM MDT SAT MAR 25 2017

NOTE: "FAIR" INDICATES FEW OR NO CLOUDS BELOW 12000 FEET WITH NO
SIGNIFICANT WEATHER AND/OR OBSTRUCTIONS TO VISIBILITY.

MTZ001>007-043-260100-
WEST OF THE DIVIDE

CITY           SKY/WX    TMP DP  RH WIND       PRES   REMARKS
KALISPELL      CLOUDY    48  26  42 W22G28    29.93R
MISSOULA       PTSUNNY   50  29  44 W15       29.96R
BUTTE          CLOUDY    46  16  30 NW14G20   29.91S
MULLAN PASS    CLOUDY    29  28  96 VRB5      29.94R FOG
ANACONDA         N/A     48  16  27 W9        29.91S
DEER LODGE       N/A     46  21  36 NW8       29.93R
EUREKA           N/A     43  30  61 CALM      29.96R
HAMILTON         N/A     48  25  40 W9        29.94S
RONAN            N/A     47  33  58 S8        30.02R
$$

MTZ008-052>055-260100-
SOUTHWEST MONTANA

CITY           SKY/WX    TMP DP  RH WIND       PRES   REMARKS
BOZEMAN        CLOUDY    51  25  36 NW3       29.89F
DILLON         CLOUDY    50  18  28 W10       29.88F
W YELLOWSTONE  CLOUDY    36  28  75 S13G18    29.94S WCI  27
ENNIS          SUNNY     48  23  37 CALM      29.94S
THREE FORKS      N/A     52  52 100 CALM      29.90S
$$

MTZ009-010-012-014-046-048-049-054-260100-
EAST SLOPES AND CENTRAL MONTANA

CITY           SKY/WX    TMP DP  RH WIND       PRES   REMARKS
CUT BANK       MOSUNNY   49  20  31 SW23G31   29.86S
GREAT FALLS    CLOUDY    52  19  27 W13       29.88S
MALMSTROM AFB  MOSUNNY   52  18  26 W14       29.88S
HELENA         PTSUNNY   55  21  26 W9        29.88R
AUGUSTA          N/A     47  20  33 SW16      29.87S
BOWMANS CRNR     N/A     48  19  31 W17       29.87S
CHOTEAU          N/A     52  16  24 SW13      29.88S
CONRAD           N/A     50  26  39 W13       29.91R
FAIRFIELD        N/A     51  19  28 SW16      29.87R
$$

MTZ011-013-016-021-045-047-050-051-260100-
NORTH CENTRAL MONTANA

CITY           SKY/WX    TMP DP  RH WIND       PRES   REMARKS
HAVRE          CLOUDY    56  17  21 W9        29.85R
LEWISTOWN      MOSUNNY   51  14  22 NW8       29.88S
N BAR RANCH    CLOUDY    50  18  27 E8        29.90S
CHINOOK          N/A     59  18  20 W10       29.85S
DENTON         PTSUNNY   53  17  24 W12       29.85R
FORT BENTON      N/A     55  18  22 MISG      29.88R
GEYSER         CLOUDY    50  20  30 W14       29.88S
GRASS RANGE      N/A     53  16  23 W6        29.84S
STANFORD         N/A     49  20  32 NW10      29.88S
$$

MTZ017>020-022>027-061-062-260100-
NORTHEAST MONTANA

CITY           SKY/WX    TMP DP  RH WIND       PRES   REMARKS
GLASGOW        CLOUDY    57  24  28 SW5       29.86S
JORDAN           N/A     58  21  24 W8        29.87S
SIDNEY         CLOUDY    59  26  28 W5        29.87S
WOLF POINT     PTSUNNY   60  24  25 W9        29.86S
MALTA          SUNNY     57  23  26 NW7G15    29.85S
PLENTYWOOD       N/A     57  27  30 NW8       29.85R
POPLAR           N/A     57  28  33 W9        29.86R
SCOBEY           N/A     56  25  30 W3        29.85S
$$

MTZ028>42-056>058-260100-
SOUTHCENTRAL AND SOUTHEAST MONTANA

CITY           SKY/WX    TMP DP  RH WIND       PRES   REMARKS
BAKER          CLOUDY    54  32  43 NW10      29.90R
BILLINGS       CLOUDY    52  22  30 CALM      29.89F
LIVINGSTON     CLOUDY    47  31  53 S6        29.89F
MILES CITY     CLOUDY    56  27  32 W6        29.89S
BIG TIMBER     CLOUDY    45  36  70 S10       29.94R
FORSYTH          N/A     55  27  33 CALM      29.90S
HARLOWTON        N/A     51  20  30 W17       29.88F
LAUREL           N/A     52  23  32 CALM      29.90F
$$

REGIONAL REPORTS...DAKOTAS

CITY           SKY/WX    TMP DP  RH WIND       PRES   REMARKS
WILLISTON      MOSUNNY   58  30  34 SW6       29.86S
MINOT          CLOUDY    50  37  61 S9        29.86F
DICKINSON      CLOUDY    55  26  32 NW6       29.86R
BEACH            N/A    N/A N/A N/A MISG        N/A
TIOGA            N/A     54  34  47 NW3       29.87S
WATFORD CITY   CLOUDY    57  30  35 NW7       29.86S
BISMARCK       PTCLDY    53  31  42 S8        29.91F
GRAND FORKS    CLOUDY    37  34  89 S13       30.01F WCI  29
FARGO          CLOUDY    39  34  82 S9        30.03F
BUFFALO SD       N/A     59  33  37 NE15      29.79F
RAPID CITY     CLOUDY    59  33  37 NW13      29.81S
$$

REGIONAL REPORTS...WYOMING/IDAHO/WASHINGTON

CITY           SKY/WX    TMP DP  RH WIND       PRES   REMARKS
GILLETTE       MOSUNNY   52  34  50 N18       29.85F
SHERIDAN       LGT RAIN  45  40  82 NW9       29.92S
BUFFALO WY     CLOUDY    45  36  70 N12       29.91S
CODY           CLOUDY    42  32  67 NW9       29.92S
YELLOWSTONE LA   N/A     35  22  58 VRB3      29.94S
IDAHO FALLS    MOSUNNY   50  29  44 S15       29.93F
SALMON         PTSUNNY   50  25  37 N6        29.89S
BOISE          MOSUNNY   56  30  37 N10       30.00S
SPOKANE        PTSUNNY   49  25  39 W16         N/A
$$

REGIONAL REPORTS...ALBERTA

CITY           SKY/WX    TMP DP  RH WIND       PRES   REMARKS
EDMONTON       SUNNY     45  32  61 E6        29.72S
CALGARY        PTSUNNY   48  10  21 W10       29.73R
LETHBRIDGE     MOSUNNY   52  16  24 W28G36    29.81S
MEDICINE HAT   PTSUNNY   55  19  24 SW24G35   29.79R
CARDSTON         N/A     48  18  29 SW10G17     N/A
MILK RIVER       N/A     52  21  30 W17G23      N/A
$$

REGIONAL REPORTS...SASKATCHEWAN

CITY           SKY/WX    TMP DP  RH WIND       PRES   REMARKS
SWIFT CURRENT  MOSUNNY   54  21  28 W9        29.79F
REGINA         PTSUNNY   52  36  54 NW10      29.83S
SASKATOON      MOSUNNY   41  34  75 NW9       29.82R
CYPRESS HILLS    N/A     46  14  27 W12G17      N/A
VAL MARIE        N/A     54  23  30 W10         N/A
ASSINIBOIA       N/A     37  28  70 SE5         N/A
$$




USA.gov is the U.S. government's official web portal to all federal, state and local government web resources and services.